Finales Départementales des Jeunes

Compétition Départementale

LENS

Le Dimanche 02 Juin 2013

Bassin de 50m

50 Papillon Messieurs

Séries

Nom Année Temps Pts Club Pays
1 MILLE Thomas 2001 0:31:17 915 CALAIS NATATION FRA
2 DEWILDE Colin 2000 0:32:30 855 SN LENS FRA
3 DELPLANQUE David 2000 0:32:40 850 RACING CLUB ARRAS FRA
4 PLAHIERS Nicolas 2000 0:32:57 841 SN LENS FRA
5 WINOCK Hugo 2000 0:34:03 767 DAUPHINS ST-OMER FRA
6 DEFERNEZ Maxance 2000 0:34:33 752 CN COURRIÈRES FRA
7 BUQUET Mathis 2000 0:35:42 700 SN LENS FRA
8 BERNARD Erwin 2000 0:35:70 686 SN LENS FRA
9 MATUSZAK Leo 2001 0:35:77 683 STADE BÉTHUNE PÉLICAN CLUB FRA
10 DESFONTAINES Bastien 2001 0:35:79 682 STADE BÉTHUNE PÉLICAN CLUB FRA
11 POURCHEZ Aurelien 2001 0:36:37 655 ASL CANETONS LILLERS FRA
12 JAYET Zakari 2000 0:36:41 654 STADE BÉTHUNE PÉLICAN CLUB FRA
13 THUILLIER Hugo 2000 0:36:90 631 ASL CANETONS LILLERS FRA
14 LENOIR Antoine 2000 0:37:16 620 USO BRUAY-LA-BUISSIERE FRA
15 MODESTE Jean-Guillaume 2000 0:37:60 600 SC BOULOGNE-SUR-MER FRA
16 MAGNIER Arthur 2001 0:37:62 599 DAUPHINS ST-OMER FRA
17 DELIE Martin 2001 0:37:71 596 SC BOULOGNE-SUR-MER FRA
18 LOOTEN Cyprien 2001 0:37:82 591 DAUPHINS ST-OMER FRA
19 LESERT Vincent 2003 0:38:07 580 SN LENS FRA
20 MATEO Antonin 2000 0:38:30 570 STADE BÉTHUNE PÉLICAN CLUB FRA
21 TROLLÉ Pierre 2000 0:38:36 567 US MONTREUIL-SUR-MER FRA
22 FLEJSZAR Clement 2001 0:38:64 556 STADE BÉTHUNE PÉLICAN CLUB FRA
23 CORNU Louis 2000 0:38:65 555 BERCK NATATION FRA
24 MARLARD Axel 2000 0:38:81 548 SC BOULOGNE-SUR-MER FRA
25 DELETTRE Antoine 2000 0:38:96 542 ASL CANETONS LILLERS FRA
26 WALLART Jules 2002 0:38:96 542 SN LENS FRA
27 VILLAYES Julien 2000 0:39:16 534 SN LENS FRA
28 RODRIGUEZ Stéphane 2001 0:39:35 526 US MONTREUIL-SUR-MER FRA
29 FIEF Tristan 2001 0:39:39 524 RACING CLUB ARRAS FRA
30 DOMINIK Amaury 2002 0:39:44 522 USO BRUAY-LA-BUISSIERE FRA
31 THULLIER Gaëtan 2001 0:39:64 514 STADE BÉTHUNE PÉLICAN CLUB FRA
32 BRICE Théo 2001 0:39:95 502 STADE BÉTHUNE PÉLICAN CLUB FRA
33 PERQUE Raphaël 2000 0:40:05 498 BERCK NATATION FRA
34 LEFEBVRE Tristan 2002 0:40:07 497 STADE BÉTHUNE PÉLICAN CLUB FRA
35 VANHOYE Hugo 2000 0:40:17 493 RACING CLUB ARRAS FRA
36 PEYTAVI Clement 2002 0:40:94 463 SN LENS FRA
37 GEUJON Paul 2003 0:40:96 462 ASL CANETONS LILLERS FRA
38 SEGRET Marceau 2002 0:40:98 461 BERCK NATATION FRA
39 RODRIGUES Simon 2000 0:41:05 459 ASL CANETONS LILLERS FRA
40 DEY Grégoire 2002 0:41:16 455 CN COURRIÈRES FRA
41 BUCAMP Edouard 2000 0:41:36 447 CN COURRIÈRES FRA
42 BOUREL Pierre 2000 0:41:58 439 STADE BÉTHUNE PÉLICAN CLUB FRA
43 PICHARD Matisse 2003 0:41:68 435 CALAIS NATATION FRA
44 CREPIN Baptiste 2003 0:41:68 435 STADE BÉTHUNE PÉLICAN CLUB FRA
45 MAVEAU Lucas 2003 0:41:76 432 DAUPHINS ST-OMER FRA
46 MARLARD Tom 2002 0:41:78 431 SC BOULOGNE-SUR-MER FRA
47 BERRABAH Yanis 2003 0:41:82 430 CN HÉNIN-BEAUMONT FRA
48 MATON Stephane 2000 0:42:12 419 RACING CLUB ARRAS FRA
49 PERROCHEAU Dylan 2000 0:42:25 414 USO BRUAY-LA-BUISSIERE FRA
50 SAUDEMONT Felix 2001 0:42:42 408 ENC ACHICOURT FRA
51 DUBART Anthony 2002 0:42:59 402 SN LENS FRA
52 BUFFAUT Adam 2000 0:42:68 398 SN LENS FRA
53 FTULISIAK Yanis 2001 0:42:70 398 STADE BÉTHUNE PÉLICAN CLUB FRA
54 DELHOMEL Paul 2001 0:42:73 397 RACING CLUB ARRAS FRA
55 DESCAMPS Quentin 2000 0:42:90 391 HIPPO. MONTIGNY-EN-GOHELLE FRA
56 GONTIER Thomas 2002 0:43:36 375 CALAIS NATATION FRA
57 DUBRULLE Benoit 2002 0:43:42 372 ASL CANETONS LILLERS FRA
58 LEMAS Baptiste 2002 0:43:53 369 TRITONS LUMBRES FRA
59 BONNISSANT Maxime 2002 0:43:59 367 STADE BÉTHUNE PÉLICAN CLUB FRA
60 DEWAELE Oscar 2003 0:43:65 365 ASL CANETONS LILLERS FRA
61 LECORNE Theo 2000 0:43:67 364 SN LENS FRA
62 VAQUETTE Nicolas 2002 0:43:73 362 ENC ACHICOURT FRA
63 VASSEUR Anthony 2001 0:43:77 360 DAUPHINS ST-OMER FRA
64 COCQUERELLE Antoine 2000 0:43:77 360 CN COURRIÈRES FRA
65 OTOGBE Damien 2003 0:43:81 359 STADE BÉTHUNE PÉLICAN CLUB FRA
66 BOULY Arthur 2003 0:43:83 358 CALAIS NATATION FRA
67 RINGOT Louis 2001 0:43:92 355 TRITONS LUMBRES FRA
68 LOUVET Loïc 2001 0:44:19 346 CALAIS NATATION FRA
69 BONHOMME Célien 2002 0:44:21 346 RACING CLUB ARRAS FRA
70 CONSTANT Jules 2001 0:44:29 343 DAUPHINS ST-OMER FRA
71 LEQUEUX Antonin 2001 0:44:29 343 US MONTREUIL-SUR-MER FRA
72 GRANADO Hugo 2002 0:44:31 342 CN COURRIÈRES FRA
73 FONTAINE Gauthier 2001 0:44:40 339 SN LENS FRA
74 BEAUVOIS Nicola 2001 0:44:43 338 STADE BÉTHUNE PÉLICAN CLUB FRA
75 PETITPREZ Paul 2001 0:44:50 336 ASL CANETONS LILLERS FRA
76 RENSY Lucien 2000 0:44:78 327 DAUPHINS ST-OMER FRA
77 LORGNIER Cyprien 2003 0:45:22 313 TRITONS LUMBRES FRA
78 FAVIER Alexandre 2000 0:45:31 310 TRITONS LUMBRES FRA
79 CADET Thomas 2002 0:45:33 309 TRITONS LUMBRES FRA
80 LELEU Baptiste 2001 0:46:10 286 CALAIS NATATION FRA
81 HUNET Marvin 2001 0:46:87 263 SN LENS FRA
82 BASSET Maxime 2003 0:48:03 230 STADE BÉTHUNE PÉLICAN CLUB FRA
83 HENRY Louis 2002 0:48:09 229 RACING CLUB ARRAS FRA
84 BARATTE Thomas 2004 0:48:24 225 RACING CLUB ARRAS FRA
85 GUILBERT Enzo 2002 0:48:75 211 AUCHEL NATATION FRA
86 MORMENTYN Paul 2002 0:48:79 210 CALAIS NATATION FRA
87 GIVERN Enzo 2004 0:49:69 188 BERCK NATATION FRA
88 CASTILLE Kenzo 2004 0:49:71 187 AUCHEL NATATION FRA
89 BOUT Valentin 2001 0:49:86 183 DAUPHINS ST-OMER FRA
90 MAILLY Hugo 2002 0:49:90 182 BERCK NATATION FRA
91 BELLIVIER Tom 2002 0:50:29 173 DAUPHINS ST-OMER FRA
92 DUFOUR Alexis 2002 0:50:35 172 ASL CANETONS LILLERS FRA
93 TUILLIEZ Giovanny 2002 0:50:69 164 DAUPHINS ST-OMER FRA
94 CAMPAGNE Nathan 2003 0:51:03 156 STADE BÉTHUNE PÉLICAN CLUB FRA
95 FROISSART Alexandre 2004 0:51:11 154 US MONTREUIL-SUR-MER FRA
96 LEPILLET Grégoire 2002 0:51:35 149 STADE BÉTHUNE PÉLICAN CLUB FRA
97 BORZUCHOWSKI Ilhan 2004 0:51:57 144 CN COURRIÈRES FRA
98 LEMAIRE Axel 2003 0:51:76 140 ASL CANETONS LILLERS FRA
99 LENEL Thomas 2003 0:52:06 134 SC BOULOGNE-SUR-MER FRA
100 PANEL Thibault 2002 0:52:41 127 ASL CANETONS LILLERS FRA
101 LEROY Remi 2001 0:52:64 122 CN DIVION FRA
102 ROCHE-MATHON Timothee 2003 0:52:79 119 RACING CLUB ARRAS FRA
103 BORZUCHOWSKI Yannis 2002 0:53:52 105 CN COURRIÈRES FRA
104 HENOCQ Flavien 2004 0:54:37 90 RACING CLUB ARRAS FRA
105 NORMAND Jeremy 2003 0:54:79 83 DAUPHINS ST-OMER FRA
106 LEMAITRE Marco 2004 0:54:88 82 SN LENS FRA
107 BOUDIER Louka 2002 0:54:96 81 DAUPHINS ST-OMER FRA
108 DE SAINTE MARESVILLE Marius 2003 0:54:99 80 US MONTREUIL-SUR-MER FRA
109 FIEVET Rodolphe 2003 0:55:13 78 USO BRUAY-LA-BUISSIERE FRA
110 CAMBOUR Martin 2003 0:55:34 75 RACING CLUB ARRAS FRA
111 LAROCHE Nathan 2003 0:55:41 74 STADE BÉTHUNE PÉLICAN CLUB FRA
112 GLANGETAS Romain 2003 0:55:52 72 CALAIS NATATION FRA
113 BLERVAQUE Felicien 2003 0:55:62 70 STADE BÉTHUNE PÉLICAN CLUB FRA
114 FIRLEJ Thibaut 2003 0:59:11 28 RACING CLUB ARRAS FRA
115 LEVAILLANT Simon 2003 0:59:96 20 CALAIS NATATION FRA
116 COLLIER Tom 2005 1:03:45 2 CALAIS NATATION FRA
117 BECQUET Melvin 2005 1:03:74 1 US MONTREUIL-SUR-MER FRA
118 CANONNE Titouan 2004 1:04:88 1 SC BOULOGNE-SUR-MER FRA
119 FRANEK Remi 2004 1:07:45 1 SN LENS FRA
RACING CLUB ARRAS